Time,TemperatureF,DewpointF,PressureIn,WindDirection,WindDirectionDegrees,WindSpeedMPH,WindSpeedGustMPH,Humidity,HourlyPrecipIn,Conditions,Clouds,dailyrainin,SoftwareType,DateUTC
2013-01-09 00:00:00,48.0,40.5,30.18,ENE,70,8.1,8.1,75,0.00,OVC,,0.00,WeatherDisplay:10.37,2013-01-09 05:00:00,
2013-01-09 00:01:00,48.0,40.5,30.18,ENE,70,8.1,8.1,75,0.00,OVC,,0.00,WeatherDisplay:10.37,2013-01-09 05:01:00,
2013-01-09 00:02:00,48.0,40.5,30.18,ENE,70,8.1,8.1,75,0.00,OVC,,0.00,WeatherDisplay:10.37,2013-01-09 05:02:00,
2013-01-09 00:03:00,48.0,40.5,30.18,ENE,70,8.1,8.1,75,0.00,OVC,,0.00,WeatherDisplay:10.37,2013-01-09 05:03:00,
2013-01-09 00:08:00,48.0,40.5,30.18,ENE,70,8.1,8.1,75,0.00,OVC,,0.00,WeatherDisplay:10.37,2013-01-09 05:08:00,
2013-01-09 00:13:00,48.0,40.5,30.19,ENE,70,8.1,8.1,75,0.00,OVC,,0.00,WeatherDisplay:10.37,2013-01-09 05:13:00,
2013-01-09 00:18:00,48.0,40.5,30.19,ENE,70,6.9,6.9,75,0.00,OVC,,0.00,WeatherDisplay:10.37,2013-01-09 05:18:00,
2013-01-09 00:23:00,48.0,40.5,30.19,ENE,70,6.9,6.9,75,0.00,OVC,,0.00,WeatherDisplay:10.37,2013-01-09 05:23:00,
2013-01-09 00:28:00,48.0,40.5,30.19,ENE,70,6.9,6.9,75,0.00,OVC,,0.00,WeatherDisplay:10.37,2013-01-09 05:28:00,
2013-01-09 00:33:00,48.0,40.5,30.19,ENE,70,6.9,6.9,75,0.00,OVC,,0.00,WeatherDisplay:10.37,2013-01-09 05:33:00,
2013-01-09 00:38:00,48.0,40.5,30.19,ENE,70,6.9,6.9,75,0.00,OVC,,0.00,WeatherDisplay:10.37,2013-01-09 05:38:00,
2013-01-09 00:43:00,48.0,40.5,30.19,ENE,70,6.9,6.9,75,0.00,OVC,,0.00,WeatherDisplay:10.37,2013-01-09 05:43:00,
2013-01-09 00:48:00,48.0,40.5,30.19,ENE,70,6.9,6.9,75,0.00,OVC,,0.00,WeatherDisplay:10.37,2013-01-09 05:48:00,
2013-01-09 00:53:00,48.0,40.5,30.19,ENE,70,6.9,6.9,75,0.00,OVC,,0.00,WeatherDisplay:10.37,2013-01-09 05:53:00,
2013-01-09 00:58:00,48.2,40.6,30.19,ENE,70,6.9,6.9,75,0.00,OVC,,0.00,WeatherDisplay:10.37,2013-01-09 05:58:00,
2013-01-09 01:03:00,48.2,40.6,30.19,ENE,70,6.9,6.9,75,0.00,OVC,,0.00,WeatherDisplay:10.37,2013-01-09 06:03:00,
2013-01-09 01:08:00,48.2,40.6,30.19,ENE,70,6.9,6.9,75,0.00,OVC,,0.00,WeatherDisplay:10.37,2013-01-09 06:08:00,
2013-01-09 01:13:00,48.2,41.0,30.19,ENE,70,6.9,6.9,76,0.00,OVC,,0.00,WeatherDisplay:10.37,2013-01-09 06:13:00,
2013-01-09 01:18:00,48.2,41.0,30.19,ENE,70,5.8,5.8,76,0.00,OVC,,0.00,WeatherDisplay:10.37,2013-01-09 06:18:00,
2013-01-09 01:23:00,48.2,41.0,30.19,ENE,70,5.8,5.8,76,0.00,OVC,,0.00,WeatherDisplay:10.37,2013-01-09 06:23:00,
2013-01-09 01:28:00,48.0,40.8,30.19,ENE,70,5.8,5.8,76,0.00,OVC,,0.00,WeatherDisplay:10.37,2013-01-09 06:28:00,
2013-01-09 01:33:00,48.0,40.8,30.19,ENE,70,5.8,5.8,76,0.00,OVC,,0.00,WeatherDisplay:10.37,2013-01-09 06:33:00,
2013-01-09 01:38:00,48.0,40.8,30.19,ENE,70,5.8,5.8,76,0.00,OVC,,0.00,WeatherDisplay:10.37,2013-01-09 06:38:00,
2013-01-09 01:43:00,48.0,41.2,30.19,ENE,70,5.8,5.8,77,0.00,OVC,,0.00,WeatherDisplay:10.37,2013-01-09 06:43:00,
2013-01-09 01:48:00,48.0,41.2,30.19,ENE,70,5.8,5.8,77,0.00,OVC,,0.00,WeatherDisplay:10.37,2013-01-09 06:48:00,
2013-01-09 01:53:00,48.0,41.2,30.19,ENE,70,5.8,5.8,77,0.00,OVC,,0.00,WeatherDisplay:10.37,2013-01-09 06:53:00,
2013-01-09 01:58:00,48.0,41.2,30.19,ENE,70,5.8,5.8,77,0.00,OVC,,0.00,WeatherDisplay:10.37,2013-01-09 06:58:00,
2013-01-09 02:03:00,48.0,41.2,30.19,ENE,70,5.8,5.8,77,0.00,OVC,,0.00,WeatherDisplay:10.37,2013-01-09 07:03:00,
2013-01-09 02:08:00,48.0,41.2,30.19,ENE,70,5.8,5.8,77,0.00,OVC,,0.00,WeatherDisplay:10.37,2013-01-09 07:08:00,
2013-01-09 02:13:00,48.0,41.2,30.19,ENE,70,5.8,5.8,77,0.00,OVC,,0.00,WeatherDisplay:10.37,2013-01-09 07:13:00,
2013-01-09 02:18:00,48.0,41.2,30.19,ENE,60,4.6,4.6,77,0.00,OVC,,0.00,WeatherDisplay:10.37,2013-01-09 07:18:00,
2013-01-09 02:23:00,48.0,41.5,30.19,ENE,60,4.6,4.6,78,0.00,OVC,,0.00,WeatherDisplay:10.37,2013-01-09 07:23:00,
2013-01-09 02:28:00,48.0,41.5,30.19,ENE,60,4.6,4.6,78,0.00,OVC,,0.00,WeatherDisplay:10.37,2013-01-09 07:28:00,
2013-01-09 02:33:00,48.0,41.5,30.19,ENE,60,4.6,4.6,78,0.00,OVC,,0.00,WeatherDisplay:10.37,2013-01-09 07:33:00,
2013-01-09 02:38:00,48.0,41.5,30.19,ENE,60,4.6,4.6,78,0.00,OVC,,0.00,WeatherDisplay:10.37,2013-01-09 07:38:00,
2013-01-09 02:43:00,48.0,41.8,30.19,ENE,60,4.6,4.6,79,0.00,OVC,,0.00,WeatherDisplay:10.37,2013-01-09 07:43:00,
2013-01-09 02:48:00,48.0,41.8,30.19,ENE,60,4.6,4.6,79,0.00,OVC,,0.00,WeatherDisplay:10.37,2013-01-09 07:48:00,
2013-01-09 02:53:00,48.0,41.8,30.19,ENE,60,4.6,4.6,79,0.00,OVC,,0.00,WeatherDisplay:10.37,2013-01-09 07:53:00,
2013-01-09 02:58:00,48.0,41.8,30.19,ENE,60,4.6,4.6,79,0.00,OVC,,0.00,WeatherDisplay:10.37,2013-01-09 07:58:00,
2013-01-09 03:03:00,48.0,42.1,30.19,ENE,60,4.6,4.6,80,0.00,OVC,,0.00,WeatherDisplay:10.37,2013-01-09 08:03:00,
2013-01-09 03:08:00,48.0,42.1,30.19,ENE,60,4.6,4.6,80,0.00,OVC,,0.00,WeatherDisplay:10.37,2013-01-09 08:08:00,
2013-01-09 03:13:00,47.8,42.0,30.18,ENE,60,4.6,4.6,80,0.00,OVC,,0.00,WeatherDisplay:10.37,2013-01-09 08:13:00,
2013-01-09 03:18:00,47.8,42.0,30.18,NE,50,5.8,5.8,80,0.00,-RA,OVC,0.00,WeatherDisplay:10.37,2013-01-09 08:18:00,
2013-01-09 03:23:00,47.8,42.0,30.18,NE,50,5.8,5.8,80,0.00,-RA,OVC,0.00,WeatherDisplay:10.37,2013-01-09 08:23:00,
2013-01-09 03:28:00,47.8,42.3,30.19,NE,50,5.8,5.8,81,0.00,-RA,OVC,0.00,WeatherDisplay:10.37,2013-01-09 08:28:00,
2013-01-09 03:33:00,47.8,42.3,30.18,NE,50,5.8,5.8,81,0.00,-RA,OVC,0.00,WeatherDisplay:10.37,2013-01-09 08:33:00,
2013-01-09 03:38:00,47.8,42.3,30.18,NE,50,5.8,5.8,81,0.00,-RA,OVC,0.00,WeatherDisplay:10.37,2013-01-09 08:38:00,
2013-01-09 03:43:00,47.8,42.3,30.18,NE,50,5.8,5.8,81,0.00,-RA,OVC,0.00,WeatherDisplay:10.37,2013-01-09 08:43:00,
2013-01-09 03:48:00,47.8,42.3,30.18,NE,50,5.8,5.8,81,0.00,-RA,OVC,0.00,WeatherDisplay:10.37,2013-01-09 08:48:00,
2013-01-09 03:53:00,48.0,42.5,30.18,NE,50,5.8,5.8,81,0.00,-RA,OVC,0.00,WeatherDisplay:10.37,2013-01-09 08:53:00,
2013-01-09 03:58:00,48.0,42.5,30.19,NE,50,5.8,5.8,81,0.00,-RA,OVC,0.00,WeatherDisplay:10.37,2013-01-09 08:58:00,
2013-01-09 04:03:00,48.0,42.5,30.19,NE,50,5.8,5.8,81,0.00,-RA,OVC,0.00,WeatherDisplay:10.37,2013-01-09 09:03:00,
2013-01-09 04:08:00,48.0,42.5,30.19,NE,50,5.8,5.8,81,0.00,-RA,OVC,0.00,WeatherDisplay:10.37,2013-01-09 09:08:00,
2013-01-09 04:13:00,48.0,42.5,30.19,NE,50,5.8,5.8,81,0.00,-RA,OVC,0.00,WeatherDisplay:10.37,2013-01-09 09:13:00,
2013-01-09 04:18:00,48.0,42.5,30.19,NE,50,4.6,4.6,81,0.00,OVC,,0.00,WeatherDisplay:10.37,2013-01-09 09:18:00,
2013-01-09 04:23:00,48.0,42.5,30.19,NE,50,4.6,4.6,81,0.00,OVC,,0.00,WeatherDisplay:10.37,2013-01-09 09:23:00,
2013-01-09 04:28:00,48.0,42.8,30.19,NE,50,4.6,4.6,82,0.00,OVC,,0.00,WeatherDisplay:10.37,2013-01-09 09:28:00,
2013-01-09 04:33:00,48.0,42.8,30.19,NE,50,4.6,4.6,82,0.00,OVC,,0.00,WeatherDisplay:10.37,2013-01-09 09:33:00,
2013-01-09 04:38:00,48.0,42.8,30.19,NE,50,4.6,4.6,82,0.00,OVC,,0.00,WeatherDisplay:10.37,2013-01-09 09:38:00,
2013-01-09 04:43:00,48.0,42.8,30.19,NE,50,4.6,4.6,82,0.00,OVC,,0.00,WeatherDisplay:10.37,2013-01-09 09:43:00,
2013-01-09 04:48:00,48.0,42.8,30.19,NNE,30,5.8,5.8,82,0.00,OVC,,0.00,WeatherDisplay:10.37,2013-01-09 09:48:00,
2013-01-09 04:53:00,48.0,42.8,30.19,NNE,30,5.8,5.8,82,0.00,OVC,,0.00,WeatherDisplay:10.37,2013-01-09 09:53:00,
2013-01-09 04:58:00,48.0,42.8,30.19,NNE,30,5.8,5.8,82,0.00,OVC,,0.00,WeatherDisplay:10.37,2013-01-09 09:58:00,
2013-01-09 05:03:00,48.0,42.8,30.18,NNE,30,5.8,5.8,82,0.00,OVC,,0.00,WeatherDisplay:10.37,2013-01-09 10:03:00,
2013-01-09 05:08:00,48.0,42.8,30.18,NNE,30,5.8,5.8,82,0.00,OVC,,0.00,WeatherDisplay:10.37,2013-01-09 10:08:00,
2013-01-09 05:13:00,48.0,42.8,30.18,NNE,30,5.8,5.8,82,0.00,OVC,,0.00,WeatherDisplay:10.37,2013-01-09 10:13:00,
2013-01-09 05:18:00,48.0,42.8,30.18,NNE,20,3.5,3.5,82,0.00,OVC,,0.00,WeatherDisplay:10.37,2013-01-09 10:18:00,
2013-01-09 05:23:00,48.0,42.8,30.19,NNE,20,3.5,3.5,82,0.00,OVC,,0.00,WeatherDisplay:10.37,2013-01-09 10:23:00,
2013-01-09 05:28:00,48.0,43.1,30.19,NNE,20,3.5,3.5,83,0.00,OVC,,0.00,WeatherDisplay:10.37,2013-01-09 10:28:00,
2013-01-09 05:33:00,48.0,43.4,30.19,NNE,20,3.5,3.5,84,0.00,OVC,,0.00,WeatherDisplay:10.37,2013-01-09 10:33:00,
2013-01-09 05:38:00,48.0,43.4,30.20,NNE,20,3.5,3.5,84,0.00,OVC,,0.00,WeatherDisplay:10.37,2013-01-09 10:38:00,
2013-01-09 05:43:00,48.0,43.1,30.20,NNE,20,3.5,3.5,83,0.00,OVC,,0.00,WeatherDisplay:10.37,2013-01-09 10:43:00,
2013-01-09 05:48:00,48.0,43.4,30.20,NNE,20,3.5,3.5,84,0.00,OVC,,0.00,WeatherDisplay:10.37,2013-01-09 10:48:00,
2013-01-09 05:53:00,48.0,43.4,30.20,NNE,20,3.5,3.5,84,0.00,OVC,,0.00,WeatherDisplay:10.37,2013-01-09 10:53:00,
2013-01-09 05:58:00,48.0,43.4,30.20,NNE,20,3.5,3.5,84,0.00,OVC,,0.00,WeatherDisplay:10.37,2013-01-09 10:58:00,
2013-01-09 06:03:00,48.0,43.4,30.20,NNE,20,3.5,3.5,84,0.00,OVC,,0.00,WeatherDisplay:10.37,2013-01-09 11:03:00,
2013-01-09 06:08:00,48.0,43.4,30.20,NNE,20,3.5,3.5,84,0.00,OVC,,0.00,WeatherDisplay:10.37,2013-01-09 11:08:00,
2013-01-09 06:13:00,48.0,43.4,30.20,NNE,20,3.5,3.5,84,0.00,OVC,,0.00,WeatherDisplay:10.37,2013-01-09 11:13:00,
2013-01-09 06:18:00,48.0,43.4,30.20,NNE,20,0.0,0.0,84,0.00,OVC,,0.00,WeatherDisplay:10.37,2013-01-09 11:18:00,
2013-01-09 06:23:00,48.0,43.4,30.19,NNE,20,0.0,0.0,84,0.00,OVC,,0.00,WeatherDisplay:10.37,2013-01-09 11:23:00,
2013-01-09 06:28:00,48.0,43.4,30.19,NNE,20,0.0,0.0,84,0.00,OVC,,0.00,WeatherDisplay:10.37,2013-01-09 11:28:00,
2013-01-09 06:33:00,48.0,43.4,30.20,NNE,20,0.0,0.0,84,0.00,OVC,,0.00,WeatherDisplay:10.37,2013-01-09 11:33:00,
2013-01-09 06:38:00,48.0,43.4,30.21,NNE,20,0.0,0.0,84,0.00,OVC,,0.00,WeatherDisplay:10.37,2013-01-09 11:38:00,
2013-01-09 06:43:00,48.0,43.4,30.21,NNE,20,0.0,0.0,84,0.00,OVC,,0.00,WeatherDisplay:10.37,2013-01-09 11:43:00,
2013-01-09 06:48:00,48.0,43.4,30.21,NNE,20,0.0,0.0,84,0.00,OVC,,0.00,WeatherDisplay:10.37,2013-01-09 11:48:00,
2013-01-09 06:53:00,48.0,43.4,30.21,NNE,20,0.0,0.0,84,0.00,OVC,,0.00,WeatherDisplay:10.37,2013-01-09 11:53:00,
2013-01-09 06:58:00,48.0,43.4,30.21,NNE,20,0.0,0.0,84,0.00,OVC,,0.00,WeatherDisplay:10.37,2013-01-09 11:58:00,
2013-01-09 07:03:00,48.0,43.7,30.22,NNE,20,0.0,0.0,85,0.00,OVC,,0.00,WeatherDisplay:10.37,2013-01-09 12:03:00,
2013-01-09 07:08:00,48.0,43.7,30.21,NNE,20,0.0,0.0,85,0.00,OVC,,0.00,WeatherDisplay:10.37,2013-01-09 12:08:00,
2013-01-09 07:13:00,48.0,43.7,30.22,NNE,20,0.0,0.0,85,0.00,OVC,,0.00,WeatherDisplay:10.37,2013-01-09 12:13:00,
2013-01-09 07:18:00,48.0,43.7,30.22,NNE,20,5.8,5.8,85,0.00,OVC,,0.00,WeatherDisplay:10.37,2013-01-09 12:18:00,
2013-01-09 07:23:00,48.2,43.9,30.22,NNE,20,5.8,5.8,85,0.00,OVC,,0.00,WeatherDisplay:10.37,2013-01-09 12:23:00,
2013-01-09 07:28:00,48.4,44.1,30.22,NNE,20,5.8,5.8,85,0.00,OVC,,0.00,WeatherDisplay:10.37,2013-01-09 12:28:00,
2013-01-09 07:33:00,48.4,44.1,30.22,NNE,20,5.8,5.8,85,0.00,OVC,,0.00,WeatherDisplay:10.37,2013-01-09 12:33:00,
2013-01-09 07:38:00,48.2,43.9,30.22,NNE,20,5.8,5.8,85,0.00,OVC,,0.00,WeatherDisplay:10.37,2013-01-09 12:38:00,
2013-01-09 07:43:00,48.2,43.9,30.22,NNE,20,5.8,5.8,85,0.00,OVC,,0.00,WeatherDisplay:10.37,2013-01-09 12:43:00,
2013-01-09 07:48:00,48.2,43.9,30.22,NNE,20,5.8,5.8,85,0.00,OVC,,0.00,WeatherDisplay:10.37,2013-01-09 12:48:00,
2013-01-09 07:53:00,48.2,43.9,30.22,NNE,20,5.8,5.8,85,0.00,OVC,,0.00,WeatherDisplay:10.37,2013-01-09 12:53:00,
2013-01-09 07:58:00,48.2,43.9,30.22,NNE,20,5.8,5.8,85,0.00,OVC,,0.00,WeatherDisplay:10.37,2013-01-09 12:58:00,
2013-01-09 08:03:00,48.2,44.2,30.23,NNE,20,5.8,5.8,86,0.00,OVC,,0.00,WeatherDisplay:10.37,2013-01-09 13:03:00,
2013-01-09 08:08:00,48.2,44.2,30.22,NNE,20,5.8,5.8,86,0.00,OVC,,0.00,WeatherDisplay:10.37,2013-01-09 13:08:00,
2013-01-09 08:13:00,48.2,44.2,30.22,NNE,20,5.8,5.8,86,0.00,OVC,,0.00,WeatherDisplay:10.37,2013-01-09 13:13:00,
2013-01-09 08:18:00,48.4,44.4,30.22,NNE,30,3.5,3.5,86,0.00,OVC,,0.00,WeatherDisplay:10.37,2013-01-09 13:18:00,
2013-01-09 08:23:00,48.4,44.4,30.23,NNE,30,3.5,3.5,86,0.00,OVC,,0.00,WeatherDisplay:10.37,2013-01-09 13:23:00,
2013-01-09 08:28:00,48.6,44.6,30.22,NNE,30,3.5,3.5,86,0.00,OVC,,0.00,WeatherDisplay:10.37,2013-01-09 13:28:00,
2013-01-09 08:33:00,48.7,44.7,30.22,NNE,30,3.5,3.5,86,0.00,OVC,,0.00,WeatherDisplay:10.37,2013-01-09 13:33:00,
2013-01-09 08:38:00,49.1,45.1,30.22,NNE,30,3.5,3.5,86,0.00,OVC,,0.00,WeatherDisplay:10.37,2013-01-09 13:38:00,
2013-01-09 08:43:00,49.6,45.6,30.22,NNE,30,3.5,3.5,86,0.00,OVC,,0.00,WeatherDisplay:10.37,2013-01-09 13:43:00,
2013-01-09 08:48:00,49.8,45.8,30.23,ENE,70,5.8,5.8,86,0.00,BKN,OVC,0.00,WeatherDisplay:10.37,2013-01-09 13:48:00,
2013-01-09 08:53:00,50.2,46.2,30.23,ENE,70,5.8,5.8,86,0.00,BKN,OVC,0.00,WeatherDisplay:10.37,2013-01-09 13:53:00,
2013-01-09 08:58:00,50.5,46.5,30.23,ENE,70,5.8,5.8,86,0.00,BKN,OVC,0.00,WeatherDisplay:10.37,2013-01-09 13:58:00,
2013-01-09 09:03:00,50.5,46.5,30.24,ENE,70,5.8,5.8,86,0.00,BKN,OVC,0.00,WeatherDisplay:10.37,2013-01-09 14:03:00,
2013-01-09 09:08:00,50.7,46.7,30.24,ENE,70,5.8,5.8,86,0.00,BKN,OVC,0.00,WeatherDisplay:10.37,2013-01-09 14:08:00,
2013-01-09 09:13:00,50.7,46.7,30.24,ENE,70,5.8,5.8,86,0.00,BKN,OVC,0.00,WeatherDisplay:10.37,2013-01-09 14:13:00,
2013-01-09 09:18:00,50.7,46.7,30.24,ENE,60,6.9,6.9,86,0.00,SCT,OVC,0.00,WeatherDisplay:10.37,2013-01-09 14:18:00,
2013-01-09 09:23:00,51.6,47.6,30.24,ENE,60,6.9,6.9,86,0.00,SCT,OVC,0.00,WeatherDisplay:10.37,2013-01-09 14:23:00,
2013-01-09 09:28:00,51.8,47.7,30.24,ENE,60,6.9,6.9,86,0.00,SCT,OVC,0.00,WeatherDisplay:10.37,2013-01-09 14:28:00,
2013-01-09 09:33:00,52.0,47.9,30.24,ENE,60,6.9,6.9,86,0.00,SCT,OVC,0.00,WeatherDisplay:10.37,2013-01-09 14:33:00,
2013-01-09 09:38:00,52.2,48.1,30.24,ENE,60,6.9,6.9,86,0.00,SCT,OVC,0.00,WeatherDisplay:10.37,2013-01-09 14:38:00,
2013-01-09 09:43:00,52.2,48.1,30.24,ENE,60,6.9,6.9,86,0.00,SCT,OVC,0.00,WeatherDisplay:10.37,2013-01-09 14:43:00,
2013-01-09 09:48:00,52.5,48.5,30.24,ENE,60,6.9,6.9,86,0.00,SCT,OVC,0.00,WeatherDisplay:10.37,2013-01-09 14:48:00,
2013-01-09 09:53:00,52.5,48.5,30.24,ENE,60,6.9,6.9,86,0.00,SCT,OVC,0.00,WeatherDisplay:10.37,2013-01-09 14:53:00,
2013-01-09 09:58:00,52.5,48.5,30.24,ENE,60,6.9,6.9,86,0.00,SCT,OVC,0.00,WeatherDisplay:10.37,2013-01-09 14:58:00,
2013-01-09 10:03:00,52.9,48.8,30.24,ENE,60,6.9,6.9,86,0.00,SCT,OVC,0.00,WeatherDisplay:10.37,2013-01-09 15:03:00,
2013-01-09 10:08:00,53.2,49.2,30.25,ENE,60,6.9,6.9,86,0.00,SCT,OVC,0.00,WeatherDisplay:10.37,2013-01-09 15:08:00,
2013-01-09 10:13:00,53.4,49.3,30.24,ENE,60,6.9,6.9,86,0.00,SCT,OVC,0.00,WeatherDisplay:10.37,2013-01-09 15:13:00,
2013-01-09 10:18:00,54.0,49.9,30.25,NE,50,4.6,4.6,86,0.00,BKN,OVC,0.00,WeatherDisplay:10.37,2013-01-09 15:18:00,
2013-01-09 10:23:00,54.3,50.2,30.25,NE,50,4.6,4.6,86,0.00,BKN,OVC,0.00,WeatherDisplay:10.37,2013-01-09 15:23:00,
2013-01-09 10:28:00,54.7,50.3,30.25,NE,50,4.6,4.6,85,0.00,BKN,OVC,0.00,WeatherDisplay:10.37,2013-01-09 15:28:00,
2013-01-09 10:33:00,54.9,50.1,30.25,NE,50,4.6,4.6,84,0.00,BKN,OVC,0.00,WeatherDisplay:10.37,2013-01-09 15:33:00,
2013-01-09 10:38:00,55.2,50.8,30.26,NE,50,4.6,4.6,85,0.00,BKN,OVC,0.00,WeatherDisplay:10.37,2013-01-09 15:38:00,
2013-01-09 10:43:00,55.4,51.0,30.25,NE,50,4.6,4.6,85,0.00,BKN,OVC,0.00,WeatherDisplay:10.37,2013-01-09 15:43:00,
2013-01-09 10:48:00,55.8,51.0,30.26,NE,50,4.6,4.6,84,0.00,BKN,OVC,0.00,WeatherDisplay:10.37,2013-01-09 15:48:00,
2013-01-09 10:53:00,55.9,51.2,30.26,NE,50,4.6,4.6,84,0.00,BKN,OVC,0.00,WeatherDisplay:10.37,2013-01-09 15:53:00,
2013-01-09 10:58:00,56.1,51.4,30.25,NE,50,4.6,4.6,84,0.00,BKN,OVC,0.00,WeatherDisplay:10.37,2013-01-09 15:58:00,
2013-01-09 11:03:00,56.1,51.0,30.25,NE,50,4.6,4.6,83,0.00,BKN,OVC,0.00,WeatherDisplay:10.37,2013-01-09 16:03:00,
2013-01-09 11:08:00,56.5,51.4,30.25,NE,50,4.6,4.6,83,0.00,BKN,OVC,0.00,WeatherDisplay:10.37,2013-01-09 16:08:00,
2013-01-09 11:13:00,56.5,51.4,30.24,NE,50,4.6,4.6,83,0.00,BKN,OVC,0.00,WeatherDisplay:10.37,2013-01-09 16:13:00,
2013-01-09 11:18:00,56.8,51.7,30.24,East,80,4.6,4.6,83,0.00,CLR,OVC,0.00,WeatherDisplay:10.37,2013-01-09 16:18:00,
2013-01-09 11:23:00,57.4,51.9,30.24,East,80,4.6,4.6,82,0.00,CLR,OVC,0.00,WeatherDisplay:10.37,2013-01-09 16:23:00,
2013-01-09 11:28:00,57.6,52.1,30.23,East,80,4.6,4.6,82,0.00,CLR,OVC,0.00,WeatherDisplay:10.37,2013-01-09 16:28:00,
2013-01-09 11:33:00,57.9,52.5,30.23,East,80,4.6,4.6,82,0.00,CLR,OVC,0.00,WeatherDisplay:10.37,2013-01-09 16:33:00,
2013-01-09 11:38:00,58.3,52.5,30.23,East,80,4.6,4.6,81,0.00,CLR,OVC,0.00,WeatherDisplay:10.37,2013-01-09 16:38:00,
2013-01-09 11:43:00,58.5,52.3,30.22,East,80,4.6,4.6,80,0.00,CLR,OVC,0.00,WeatherDisplay:10.37,2013-01-09 16:43:00,
2013-01-09 11:48:00,58.8,52.7,30.22,East,80,4.6,4.6,80,0.00,CLR,OVC,0.00,WeatherDisplay:10.37,2013-01-09 16:48:00,
2013-01-09 11:53:00,58.8,52.7,30.22,East,80,4.6,4.6,80,0.00,CLR,OVC,0.00,WeatherDisplay:10.37,2013-01-09 16:53:00,
2013-01-09 11:58:00,58.8,52.7,30.22,East,80,4.6,4.6,80,0.00,CLR,OVC,0.00,WeatherDisplay:10.37,2013-01-09 16:58:00,
2013-01-09 12:03:00,59.2,53.0,30.22,East,80,4.6,4.6,80,0.00,CLR,OVC,0.00,WeatherDisplay:10.37,2013-01-09 17:03:00,
2013-01-09 12:08:00,59.5,53.0,30.22,East,80,4.6,4.6,79,0.00,CLR,OVC,0.00,WeatherDisplay:10.37,2013-01-09 17:08:00,
2013-01-09 12:13:00,59.7,52.8,30.22,East,80,4.6,4.6,78,0.00,CLR,OVC,0.00,WeatherDisplay:10.37,2013-01-09 17:13:00,
2013-01-09 12:18:00,59.7,52.8,30.21,ENE,60,3.5,3.5,78,0.00,CLR,OVC,0.00,WeatherDisplay:10.37,2013-01-09 17:18:00,
2013-01-09 12:23:00,59.7,52.8,30.22,ENE,60,3.5,3.5,78,0.00,CLR,OVC,0.00,WeatherDisplay:10.37,2013-01-09 17:23:00,
2013-01-09 12:28:00,60.1,53.2,30.21,ENE,60,3.5,3.5,78,0.00,CLR,OVC,0.00,WeatherDisplay:10.37,2013-01-09 17:28:00,
2013-01-09 12:33:00,60.1,52.8,30.21,ENE,60,3.5,3.5,77,0.00,CLR,OVC,0.00,WeatherDisplay:10.37,2013-01-09 17:33:00,
2013-01-09 12:38:00,60.1,52.8,30.21,ENE,60,3.5,3.5,77,0.00,CLR,OVC,0.00,WeatherDisplay:10.37,2013-01-09 17:38:00,
2013-01-09 12:43:00,60.4,52.8,30.21,ENE,60,3.5,3.5,76,0.00,CLR,OVC,0.00,WeatherDisplay:10.37,2013-01-09 17:43:00,
2013-01-09 12:48:00,60.4,52.8,30.21,ENE,60,3.5,3.5,76,0.00,CLR,OVC,0.00,WeatherDisplay:10.37,2013-01-09 17:48:00,
2013-01-09 12:53:00,60.4,52.8,30.21,ENE,60,3.5,3.5,76,0.00,CLR,OVC,0.00,WeatherDisplay:10.37,2013-01-09 17:53:00,
2013-01-09 12:58:00,60.4,52.8,30.20,ENE,60,3.5,3.5,76,0.00,CLR,OVC,0.00,WeatherDisplay:10.37,2013-01-09 17:58:00,
2013-01-09 13:03:00,60.4,52.8,30.20,ENE,60,3.5,3.5,76,0.00,CLR,OVC,0.00,WeatherDisplay:10.37,2013-01-09 18:03:00,
2013-01-09 13:08:00,60.6,53.0,30.20,ENE,60,3.5,3.5,76,0.00,CLR,OVC,0.00,WeatherDisplay:10.37,2013-01-09 18:08:00,
2013-01-09 13:13:00,60.4,52.8,30.20,ENE,60,3.5,3.5,76,0.00,CLR,OVC,0.00,WeatherDisplay:10.37,2013-01-09 18:13:00,
2013-01-09 13:18:00,60.4,52.8,30.20,ENE,70,3.5,3.5,76,0.00,BKN,OVC,0.00,WeatherDisplay:10.37,2013-01-09 18:18:00,
2013-01-09 13:23:00,60.4,52.8,30.20,ENE,70,3.5,3.5,76,0.00,BKN,OVC,0.00,WeatherDisplay:10.37,2013-01-09 18:23:00,
2013-01-09 13:28:00,60.4,52.8,30.20,ENE,70,3.5,3.5,76,0.00,BKN,OVC,0.00,WeatherDisplay:10.37,2013-01-09 18:28:00,
2013-01-09 13:33:00,60.4,52.8,30.20,ENE,70,3.5,3.5,76,0.00,BKN,OVC,0.00,WeatherDisplay:10.37,2013-01-09 18:33:00,
2013-01-09 13:38:00,60.4,52.8,30.19,ENE,70,3.5,3.5,76,0.00,BKN,OVC,0.00,WeatherDisplay:10.37,2013-01-09 18:38:00,
2013-01-09 13:41:00,60.3,52.7,30.19,ENE,70,3.5,3.5,76,0.00,BKN,OVC,0.00,WeatherDisplay:10.37,2013-01-09 18:41:00,
2013-01-09 13:44:00,60.4,52.8,30.20,ENE,70,3.5,3.5,76,0.00,BKN,OVC,0.00,WeatherDisplay:10.37,2013-01-09 18:44:00,
2013-01-09 13:45:00,60.4,52.8,30.20,ENE,70,3.5,3.5,76,0.00,-DZ,OVC,0.00,WeatherDisplay:10.37,2013-01-09 18:45:00,
2013-01-09 13:48:00,60.3,52.7,30.19,ENE,70,0.0,0.0,76,0.00,SCT,OVC,0.00,WeatherDisplay:10.37,2013-01-09 18:48:00,
2013-01-09 13:49:00,60.3,52.7,30.19,ENE,70,0.0,0.0,76,0.00,SCT,OVC,0.00,WeatherDisplay:10.37,2013-01-09 18:49:00,
2013-01-09 13:54:00,60.4,52.8,30.20,ENE,70,0.0,0.0,76,0.00,SCT,OVC,0.00,WeatherDisplay:10.37,2013-01-09 18:54:00,
2013-01-09 13:59:00,60.4,52.8,30.19,ENE,70,0.0,0.0,76,0.00,SCT,OVC,0.00,WeatherDisplay:10.37,2013-01-09 18:59:00,
2013-01-09 14:04:00,60.6,53.0,30.19,ENE,70,0.0,0.0,76,0.00,SCT,OVC,0.00,WeatherDisplay:10.37,2013-01-09 19:04:00,
2013-01-09 14:09:00,60.6,52.6,30.19,ENE,70,0.0,0.0,75,0.00,SCT,OVC,0.00,WeatherDisplay:10.37,2013-01-09 19:09:00,
2013-01-09 14:14:00,61.0,53.0,30.19,ENE,70,0.0,0.0,75,0.00,SCT,OVC,0.00,WeatherDisplay:10.37,2013-01-09 19:14:00,
2013-01-09 14:19:00,61.0,53.0,30.19,East,90,4.6,4.6,75,0.00,FEW,OVC,0.00,WeatherDisplay:10.37,2013-01-09 19:19:00,
2013-01-09 14:24:00,61.3,53.0,30.19,East,90,4.6,4.6,74,0.00,FEW,OVC,0.00,WeatherDisplay:10.37,2013-01-09 19:24:00,
2013-01-09 14:29:00,61.3,53.0,30.19,East,90,4.6,4.6,74,0.00,FEW,OVC,0.00,WeatherDisplay:10.37,2013-01-09 19:29:00,
2013-01-09 14:34:00,61.5,53.2,30.18,East,90,4.6,4.6,74,0.00,FEW,OVC,0.00,WeatherDisplay:10.37,2013-01-09 19:34:00,
2013-01-09 14:39:00,61.5,53.2,30.18,East,90,4.6,4.6,74,0.00,FEW,OVC,0.00,WeatherDisplay:10.37,2013-01-09 19:39:00,
2013-01-09 14:44:00,61.7,53.0,30.18,East,90,4.6,4.6,73,0.00,FEW,OVC,0.00,WeatherDisplay:10.37,2013-01-09 19:44:00,
2013-01-09 14:49:00,61.7,53.0,30.19,East,90,4.6,4.6,73,0.00,FEW,OVC,0.00,WeatherDisplay:10.37,2013-01-09 19:49:00,
2013-01-09 14:54:00,61.7,52.6,30.19,East,90,4.6,4.6,72,0.00,FEW,OVC,0.00,WeatherDisplay:10.37,2013-01-09 19:54:00,
2013-01-09 14:59:00,61.9,52.8,30.19,East,90,4.6,4.6,72,0.00,FEW,OVC,0.00,WeatherDisplay:10.37,2013-01-09 19:59:00,
2013-01-09 15:04:00,61.9,52.8,30.19,East,90,4.6,4.6,72,0.00,FEW,OVC,0.00,WeatherDisplay:10.37,2013-01-09 20:04:00,
2013-01-09 15:09:00,61.9,52.8,30.19,East,90,4.6,4.6,72,0.00,FEW,OVC,0.00,WeatherDisplay:10.37,2013-01-09 20:09:00,
2013-01-09 15:14:00,61.7,53.0,30.19,East,90,4.6,4.6,73,0.00,FEW,OVC,0.00,WeatherDisplay:10.37,2013-01-09 20:14:00,
2013-01-09 15:19:00,61.7,53.0,30.19,ENE,70,5.8,5.8,73,0.00,CLR,OVC,0.00,WeatherDisplay:10.37,2013-01-09 20:19:00,
2013-01-09 15:24:00,61.5,52.4,30.19,ENE,70,5.8,5.8,72,0.00,CLR,OVC,0.00,WeatherDisplay:10.37,2013-01-09 20:24:00,
2013-01-09 15:29:00,61.5,52.8,30.19,ENE,70,5.8,5.8,73,0.00,CLR,OVC,0.00,WeatherDisplay:10.37,2013-01-09 20:29:00,
2013-01-09 15:34:00,61.5,52.8,30.19,ENE,70,5.8,5.8,73,0.00,CLR,OVC,0.00,WeatherDisplay:10.37,2013-01-09 20:34:00,
2013-01-09 15:39:00,61.5,52.8,30.19,ENE,70,5.8,5.8,73,0.00,CLR,OVC,0.00,WeatherDisplay:10.37,2013-01-09 20:39:00,
2013-01-09 15:44:00,61.3,52.6,30.19,ENE,70,5.8,5.8,73,0.00,CLR,OVC,0.00,WeatherDisplay:10.37,2013-01-09 20:44:00,
2013-01-09 15:49:00,61.3,52.6,30.19,ENE,70,5.8,5.8,73,0.00,CLR,OVC,0.00,WeatherDisplay:10.37,2013-01-09 20:49:00,
2013-01-09 15:54:00,61.3,52.6,30.19,ENE,70,5.8,5.8,73,0.00,CLR,OVC,0.00,WeatherDisplay:10.37,2013-01-09 20:54:00,
2013-01-09 15:59:00,61.3,53.0,30.19,ENE,70,5.8,5.8,74,0.00,CLR,OVC,0.00,WeatherDisplay:10.37,2013-01-09 20:59:00,
2013-01-09 16:04:00,61.2,52.8,30.19,ENE,70,5.8,5.8,74,0.00,CLR,OVC,0.00,WeatherDisplay:10.37,2013-01-09 21:04:00,
2013-01-09 16:09:00,61.2,52.8,30.19,ENE,70,5.8,5.8,74,0.00,CLR,OVC,0.00,WeatherDisplay:10.37,2013-01-09 21:09:00,
2013-01-09 16:14:00,61.0,52.6,30.19,ENE,70,5.8,5.8,74,0.00,CLR,OVC,0.00,WeatherDisplay:10.37,2013-01-09 21:14:00,
2013-01-09 16:19:00,61.0,52.6,30.19,ENE,70,4.6,4.6,74,0.00,CLR,OVC,0.00,WeatherDisplay:10.37,2013-01-09 21:19:00,
2013-01-09 16:24:00,61.0,52.6,30.19,ENE,70,4.6,4.6,74,0.00,CLR,OVC,0.00,WeatherDisplay:10.37,2013-01-09 21:24:00,
2013-01-09 16:29:00,61.0,52.6,30.19,ENE,70,4.6,4.6,74,0.00,CLR,OVC,0.00,WeatherDisplay:10.37,2013-01-09 21:29:00,
2013-01-09 16:34:00,60.6,52.6,30.19,ENE,70,4.6,4.6,75,0.00,CLR,OVC,0.00,WeatherDisplay:10.37,2013-01-09 21:34:00,
2013-01-09 16:39:00,60.6,52.6,30.19,ENE,70,4.6,4.6,75,0.00,CLR,OVC,0.00,WeatherDisplay:10.37,2013-01-09 21:39:00,
2013-01-09 16:44:00,60.6,52.6,30.19,ENE,70,4.6,4.6,75,0.00,CLR,OVC,0.00,WeatherDisplay:10.37,2013-01-09 21:44:00,
2013-01-09 16:49:00,60.4,52.5,30.19,ENE,70,4.6,4.6,75,0.00,CLR,OVC,0.00,WeatherDisplay:10.37,2013-01-09 21:49:00,
2013-01-09 16:54:00,60.4,52.5,30.20,ENE,70,4.6,4.6,75,0.00,CLR,OVC,0.00,WeatherDisplay:10.37,2013-01-09 21:54:00,
2013-01-09 16:59:00,60.3,52.7,30.20,ENE,70,4.6,4.6,76,0.00,CLR,OVC,0.00,WeatherDisplay:10.37,2013-01-09 21:59:00,
2013-01-09 17:04:00,60.1,52.5,30.19,ENE,70,4.6,4.6,76,0.00,CLR,OVC,0.00,WeatherDisplay:10.37,2013-01-09 22:04:00,
2013-01-09 17:09:00,59.9,52.3,30.20,ENE,70,4.6,4.6,76,0.00,CLR,OVC,0.00,WeatherDisplay:10.37,2013-01-09 22:09:00,
2013-01-09 17:14:00,59.7,52.1,30.19,ENE,70,4.6,4.6,76,0.00,CLR,OVC,0.00,WeatherDisplay:10.37,2013-01-09 22:14:00,
2013-01-09 17:19:00,59.5,52.0,30.19,East,100,3.5,3.5,76,0.00,FEW,OVC,0.00,WeatherDisplay:10.37,2013-01-09 22:19:00,
2013-01-09 17:24:00,59.4,52.1,30.19,East,100,3.5,3.5,77,0.00,FEW,OVC,0.00,WeatherDisplay:10.37,2013-01-09 22:24:00,
2013-01-09 17:29:00,59.2,52.0,30.19,East,100,3.5,3.5,77,0.00,FEW,OVC,0.00,WeatherDisplay:10.37,2013-01-09 22:29:00,
2013-01-09 17:34:00,58.8,51.6,30.20,East,100,3.5,3.5,77,0.00,FEW,OVC,0.00,WeatherDisplay:10.37,2013-01-09 22:34:00,
2013-01-09 17:39:00,58.8,51.6,30.19,East,100,3.5,3.5,77,0.00,FEW,OVC,0.00,WeatherDisplay:10.37,2013-01-09 22:39:00,
2013-01-09 17:44:00,58.8,51.6,30.20,East,100,3.5,3.5,77,0.00,FEW,OVC,0.00,WeatherDisplay:10.37,2013-01-09 22:44:00,
2013-01-09 17:49:00,58.6,51.8,30.20,East,100,3.5,3.5,78,0.00,FEW,OVC,0.00,WeatherDisplay:10.37,2013-01-09 22:49:00,
2013-01-09 17:54:00,58.3,51.4,30.20,East,100,3.5,3.5,78,0.00,FEW,OVC,0.00,WeatherDisplay:10.37,2013-01-09 22:54:00,
2013-01-09 17:59:00,58.1,51.3,30.20,East,100,3.5,3.5,78,0.00,FEW,OVC,0.00,WeatherDisplay:10.37,2013-01-09 22:59:00,
2013-01-09 18:04:00,57.9,51.4,30.20,East,100,3.5,3.5,79,0.00,FEW,OVC,0.00,WeatherDisplay:10.37,2013-01-09 23:04:00,
2013-01-09 18:09:00,57.7,51.3,30.21,East,100,3.5,3.5,79,0.00,FEW,OVC,0.00,WeatherDisplay:10.37,2013-01-09 23:09:00,
2013-01-09 18:14:00,57.7,51.3,30.21,East,100,3.5,3.5,79,0.00,FEW,OVC,0.00,WeatherDisplay:10.37,2013-01-09 23:14:00,
2013-01-09 18:19:00,57.4,50.9,30.20,East,100,0.0,0.0,79,0.00,CLR,OVC,0.00,WeatherDisplay:10.37,2013-01-09 23:19:00,
2013-01-09 18:24:00,57.0,50.6,30.21,East,100,0.0,0.0,79,0.00,CLR,OVC,0.00,WeatherDisplay:10.37,2013-01-09 23:24:00,
2013-01-09 18:29:00,57.0,50.6,30.21,East,100,0.0,0.0,79,0.00,CLR,OVC,0.00,WeatherDisplay:10.37,2013-01-09 23:29:00,
2013-01-09 18:34:00,56.8,50.7,30.21,East,100,0.0,0.0,80,0.00,CLR,OVC,0.00,WeatherDisplay:10.37,2013-01-09 23:34:00,
2013-01-09 18:39:00,56.7,50.6,30.21,East,100,0.0,0.0,80,0.00,CLR,OVC,0.00,WeatherDisplay:10.37,2013-01-09 23:39:00,
2013-01-09 18:44:00,56.5,50.4,30.21,East,100,0.0,0.0,80,0.00,CLR,OVC,0.00,WeatherDisplay:10.37,2013-01-09 23:44:00,
2013-01-09 18:49:00,56.3,50.2,30.20,East,100,0.0,0.0,80,0.00,CLR,OVC,0.00,WeatherDisplay:10.37,2013-01-09 23:49:00,
2013-01-09 18:54:00,56.3,50.5,30.20,East,100,0.0,0.0,81,0.00,CLR,OVC,0.00,WeatherDisplay:10.37,2013-01-09 23:54:00,
2013-01-09 18:59:00,56.1,50.4,30.20,East,100,0.0,0.0,81,0.00,CLR,OVC,0.00,WeatherDisplay:10.37,2013-01-09 23:59:00,
2013-01-09 19:04:00,55.9,50.2,30.19,East,100,0.0,0.0,81,0.00,CLR,OVC,0.00,WeatherDisplay:10.37,2013-01-10 00:04:00,
2013-01-09 19:09:00,55.9,50.5,30.19,East,100,0.0,0.0,82,0.00,CLR,OVC,0.00,WeatherDisplay:10.37,2013-01-10 00:09:00,
2013-01-09 19:14:00,55.9,50.5,30.19,East,100,0.0,0.0,82,0.00,CLR,OVC,0.00,WeatherDisplay:10.37,2013-01-10 00:14:00,
2013-01-09 19:19:00,55.8,50.3,30.19,East,90,4.6,4.6,82,0.00,CLR,OVC,0.00,WeatherDisplay:10.37,2013-01-10 00:19:00,
2013-01-09 19:24:00,55.6,50.2,30.20,East,90,4.6,4.6,82,0.00,CLR,OVC,0.00,WeatherDisplay:10.37,2013-01-10 00:24:00,
2013-01-09 19:29:00,55.6,50.2,30.20,East,90,4.6,4.6,82,0.00,CLR,OVC,0.00,WeatherDisplay:10.37,2013-01-10 00:29:00,
2013-01-09 19:34:00,55.4,50.0,30.20,East,90,4.6,4.6,82,0.00,CLR,OVC,0.00,WeatherDisplay:10.37,2013-01-10 00:34:00,
2013-01-09 19:39:00,55.2,49.8,30.21,East,90,4.6,4.6,82,0.00,CLR,OVC,0.00,WeatherDisplay:10.37,2013-01-10 00:39:00,
2013-01-09 19:44:00,55.2,49.8,30.22,East,90,4.6,4.6,82,0.00,CLR,OVC,0.00,WeatherDisplay:10.37,2013-01-10 00:44:00,
2013-01-09 19:49:00,55.2,50.1,30.22,East,90,4.6,4.6,83,0.00,CLR,OVC,0.00,WeatherDisplay:10.37,2013-01-10 00:49:00,
2013-01-09 19:54:00,55.0,50.0,30.21,East,90,4.6,4.6,83,0.00,CLR,OVC,0.00,WeatherDisplay:10.37,2013-01-10 00:54:00,
2013-01-09 19:59:00,55.0,50.0,30.21,East,90,4.6,4.6,83,0.00,CLR,OVC,0.00,WeatherDisplay:10.37,2013-01-10 00:59:00,
2013-01-09 20:04:00,54.7,49.6,30.21,East,90,4.6,4.6,83,0.00,CLR,OVC,0.00,WeatherDisplay:10.37,2013-01-10 01:04:00,
2013-01-09 20:09:00,54.7,49.6,30.21,East,90,4.6,4.6,83,0.00,CLR,OVC,0.00,WeatherDisplay:10.37,2013-01-10 01:09:00,
2013-01-09 20:14:00,54.5,49.4,30.21,East,90,4.6,4.6,83,0.00,CLR,OVC,0.00,WeatherDisplay:10.37,2013-01-10 01:14:00,
2013-01-09 20:19:00,54.5,49.4,30.22,ESE,120,3.5,3.5,83,0.00,CLR,OVC,0.00,WeatherDisplay:10.37,2013-01-10 01:19:00,
2013-01-09 20:24:00,54.3,49.3,30.22,ESE,120,3.5,3.5,83,0.00,CLR,OVC,0.00,WeatherDisplay:10.37,2013-01-10 01:24:00,
2013-01-09 20:29:00,54.3,49.3,30.22,ESE,120,3.5,3.5,83,0.00,CLR,OVC,0.00,WeatherDisplay:10.37,2013-01-10 01:29:00,
2013-01-09 20:34:00,54.3,49.6,30.22,ESE,120,3.5,3.5,84,0.00,CLR,OVC,0.00,WeatherDisplay:10.37,2013-01-10 01:34:00,
2013-01-09 20:39:00,54.1,49.4,30.22,ESE,120,3.5,3.5,84,0.00,CLR,OVC,0.00,WeatherDisplay:10.37,2013-01-10 01:39:00,
2013-01-09 20:44:00,54.1,49.4,30.22,ESE,120,3.5,3.5,84,0.00,CLR,OVC,0.00,WeatherDisplay:10.37,2013-01-10 01:44:00,
2013-01-09 20:49:00,54.0,49.2,30.22,ESE,120,3.5,3.5,84,0.00,CLR,OVC,0.00,WeatherDisplay:10.37,2013-01-10 01:49:00,
2013-01-09 20:54:00,54.0,49.2,30.22,ESE,120,3.5,3.5,84,0.00,CLR,OVC,0.00,WeatherDisplay:10.37,2013-01-10 01:54:00,
2013-01-09 20:59:00,53.8,49.1,30.22,ESE,120,3.5,3.5,84,0.00,CLR,OVC,0.00,WeatherDisplay:10.37,2013-01-10 01:59:00,
2013-01-09 21:04:00,53.8,49.1,30.22,ESE,120,3.5,3.5,84,0.00,CLR,OVC,0.00,WeatherDisplay:10.37,2013-01-10 02:04:00,
2013-01-09 21:09:00,53.6,48.9,30.22,ESE,120,3.5,3.5,84,0.00,CLR,OVC,0.00,WeatherDisplay:10.37,2013-01-10 02:09:00,
2013-01-09 21:14:00,53.4,48.7,30.23,ESE,120,3.5,3.5,84,0.00,CLR,OVC,0.00,WeatherDisplay:10.37,2013-01-10 02:14:00,
2013-01-09 21:19:00,53.4,48.7,30.23,NE,50,3.5,3.5,84,0.00,CLR,OVC,0.00,WeatherDisplay:10.37,2013-01-10 02:19:00,
2013-01-09 21:24:00,53.4,48.7,30.23,NE,50,3.5,3.5,84,0.00,CLR,OVC,0.00,WeatherDisplay:10.37,2013-01-10 02:24:00,
2013-01-09 21:29:00,53.4,48.7,30.23,NE,50,3.5,3.5,84,0.00,CLR,OVC,0.00,WeatherDisplay:10.37,2013-01-10 02:29:00,
2013-01-09 21:34:00,53.2,48.5,30.23,NE,50,3.5,3.5,84,0.00,CLR,OVC,0.00,WeatherDisplay:10.37,2013-01-10 02:34:00,
2013-01-09 21:39:00,53.2,48.8,30.23,NE,50,3.5,3.5,85,0.00,CLR,OVC,0.00,WeatherDisplay:10.37,2013-01-10 02:39:00,
2013-01-09 21:44:00,53.2,48.8,30.23,NE,50,3.5,3.5,85,0.00,CLR,OVC,0.00,WeatherDisplay:10.37,2013-01-10 02:44:00,
2013-01-09 21:49:00,52.9,48.5,30.23,NE,50,3.5,3.5,85,0.00,CLR,OVC,0.00,WeatherDisplay:10.37,2013-01-10 02:49:00,
2013-01-09 21:54:00,52.9,48.5,30.23,NE,50,3.5,3.5,85,0.00,CLR,OVC,0.00,WeatherDisplay:10.37,2013-01-10 02:54:00,
2013-01-09 21:59:00,52.9,48.5,30.23,NE,50,3.5,3.5,85,0.00,CLR,OVC,0.00,WeatherDisplay:10.37,2013-01-10 02:59:00,
2013-01-09 22:04:00,52.9,48.5,30.23,NE,50,3.5,3.5,85,0.00,CLR,OVC,0.00,WeatherDisplay:10.37,2013-01-10 03:04:00,
2013-01-09 22:09:00,52.9,48.5,30.23,NE,50,3.5,3.5,85,0.00,CLR,OVC,0.00,WeatherDisplay:10.37,2013-01-10 03:09:00,
2013-01-09 22:14:00,52.7,48.3,30.22,NE,50,3.5,3.5,85,0.00,CLR,OVC,0.00,WeatherDisplay:10.37,2013-01-10 03:14:00,
2013-01-09 22:19:00,52.7,48.6,30.22,NE,50,0.0,0.0,86,0.00,OVC,,0.00,WeatherDisplay:10.37,2013-01-10 03:19:00,
2013-01-09 22:24:00,52.7,48.6,30.23,NE,50,0.0,0.0,86,0.00,OVC,,0.00,WeatherDisplay:10.37,2013-01-10 03:24:00,
2013-01-09 22:29:00,52.5,48.5,30.23,NE,50,0.0,0.0,86,0.00,OVC,,0.00,WeatherDisplay:10.37,2013-01-10 03:29:00,
2013-01-09 22:34:00,52.5,48.5,30.23,NE,50,0.0,0.0,86,0.00,OVC,,0.00,WeatherDisplay:10.37,2013-01-10 03:34:00,
2013-01-09 22:39:00,52.5,48.5,30.23,NE,50,0.0,0.0,86,0.00,OVC,,0.00,WeatherDisplay:10.37,2013-01-10 03:39:00,
2013-01-09 22:44:00,52.3,48.3,30.23,NE,50,0.0,0.0,86,0.00,OVC,,0.00,WeatherDisplay:10.37,2013-01-10 03:44:00,
2013-01-09 22:49:00,52.3,48.3,30.23,NE,50,0.0,0.0,86,0.00,OVC,,0.00,WeatherDisplay:10.37,2013-01-10 03:49:00,
2013-01-09 22:54:00,52.0,47.9,30.24,NE,50,0.0,0.0,86,0.00,OVC,,0.00,WeatherDisplay:10.37,2013-01-10 03:54:00,
2013-01-09 22:59:00,52.0,47.9,30.23,NE,50,0.0,0.0,86,0.00,OVC,,0.00,WeatherDisplay:10.37,2013-01-10 03:59:00,
2013-01-09 23:04:00,51.8,47.7,30.24,NE,50,0.0,0.0,86,0.00,OVC,,0.00,WeatherDisplay:10.37,2013-01-10 04:04:00,
2013-01-09 23:09:00,51.6,47.6,30.24,NE,50,0.0,0.0,86,0.00,OVC,,0.00,WeatherDisplay:10.37,2013-01-10 04:09:00,
2013-01-09 23:14:00,51.6,47.6,30.24,NE,50,0.0,0.0,86,0.00,OVC,,0.00,WeatherDisplay:10.37,2013-01-10 04:14:00,
2013-01-09 23:19:00,51.6,47.6,30.23,NE,50,0.0,0.0,86,0.00,FEW,OVC,0.00,WeatherDisplay:10.37,2013-01-10 04:19:00,
2013-01-09 23:24:00,51.4,47.4,30.23,NE,50,0.0,0.0,86,0.00,FEW,OVC,0.00,WeatherDisplay:10.37,2013-01-10 04:24:00,
2013-01-09 23:29:00,51.4,47.4,30.23,NE,50,0.0,0.0,86,0.00,FEW,OVC,0.00,WeatherDisplay:10.37,2013-01-10 04:29:00,
2013-01-09 23:34:00,51.4,47.7,30.24,NE,50,0.0,0.0,87,0.00,FEW,OVC,0.00,WeatherDisplay:10.37,2013-01-10 04:34:00,
2013-01-09 23:39:00,51.3,47.5,30.24,NE,50,0.0,0.0,87,0.00,FEW,OVC,0.00,WeatherDisplay:10.37,2013-01-10 04:39:00,
2013-01-09 23:44:00,51.1,47.3,30.24,NE,50,0.0,0.0,87,0.00,FEW,OVC,0.00,WeatherDisplay:10.37,2013-01-10 04:44:00,
2013-01-09 23:49:00,51.1,47.3,30.24,NE,50,0.0,0.0,87,0.00,FEW,OVC,0.00,WeatherDisplay:10.37,2013-01-10 04:49:00,
2013-01-09 23:54:00,51.1,47.3,30.24,NE,50,0.0,0.0,87,0.00,FEW,OVC,0.00,WeatherDisplay:10.37,2013-01-10 04:54:00,
2013-01-09 23:59:00,51.1,47.3,30.24,NE,50,0.0,0.0,87,0.00,FEW,OVC,0.00,WeatherDisplay:10.37,2013-01-10 04:59:00,